Year,Month,Day,Hour,Minute,Value (Times are PST for temperature in C)
2016,06,27,00,00,18.00
2016,06,27,00,01,18.00
2016,06,27,00,02,18.00
2016,06,27,00,03,17.90
2016,06,27,00,04,17.90
2016,06,27,00,05,17.90
2016,06,27,00,06,17.80
2016,06,27,00,07,17.80
2016,06,27,00,08,17.80
2016,06,27,00,09,17.70
2016,06,27,00,10,17.70
2016,06,27,00,11,17.70
2016,06,27,00,12,17.70
2016,06,27,00,13,17.60
2016,06,27,00,14,17.60
2016,06,27,00,15,17.60
2016,06,27,00,16,17.60
2016,06,27,00,17,17.50
2016,06,27,00,18,17.50
2016,06,27,00,19,17.50
2016,06,27,00,20,17.50
2016,06,27,00,21,17.40
2016,06,27,00,22,17.40
2016,06,27,00,23,17.40
2016,06,27,00,24,17.40
2016,06,27,00,25,17.40
2016,06,27,00,26,17.40
2016,06,27,00,27,17.40
2016,06,27,00,28,17.40
2016,06,27,00,29,17.40
2016,06,27,00,30,17.40
2016,06,27,00,31,17.40
2016,06,27,00,32,17.30
2016,06,27,00,33,17.30
2016,06,27,00,34,17.30
2016,06,27,00,35,17.30
2016,06,27,00,36,17.30
2016,06,27,00,37,17.30
2016,06,27,00,38,17.30
2016,06,27,00,39,17.30
2016,06,27,00,40,17.30
2016,06,27,00,41,17.30
2016,06,27,00,42,17.30
2016,06,27,00,43,17.20
2016,06,27,00,44,17.20
2016,06,27,00,45,17.20
2016,06,27,00,46,17.20
2016,06,27,00,47,17.20
2016,06,27,00,48,17.20
2016,06,27,00,49,17.20
2016,06,27,00,50,17.20
2016,06,27,00,51,17.20
2016,06,27,00,52,17.10
2016,06,27,00,53,17.10
2016,06,27,00,54,17.10
2016,06,27,00,55,17.10
2016,06,27,00,56,17.10
2016,06,27,00,57,17.10
2016,06,27,00,58,17.10
2016,06,27,00,59,17.10
2016,06,27,01,00,17.10
2016,06,27,01,01,17.00
2016,06,27,01,02,17.00
2016,06,27,01,03,17.00
2016,06,27,01,04,17.00
2016,06,27,01,05,16.90
2016,06,27,01,06,16.90
2016,06,27,01,07,16.90
2016,06,27,01,08,16.90
2016,06,27,01,09,16.90
2016,06,27,01,10,16.90
2016,06,27,01,11,16.90
2016,06,27,01,12,16.80
2016,06,27,01,13,16.80
2016,06,27,01,14,16.80
2016,06,27,01,15,16.80
2016,06,27,01,16,16.80
2016,06,27,01,17,16.80
2016,06,27,01,18,16.80
2016,06,27,01,19,16.70
2016,06,27,01,20,16.70
2016,06,27,01,21,16.70
2016,06,27,01,22,16.70
2016,06,27,01,23,16.70
2016,06,27,01,24,16.70
2016,06,27,01,25,16.70
2016,06,27,01,26,16.70
2016,06,27,01,27,16.70
2016,06,27,01,28,16.60
2016,06,27,01,29,16.60
2016,06,27,01,30,16.60
2016,06,27,01,31,16.60
2016,06,27,01,32,16.60
2016,06,27,01,33,16.60
2016,06,27,01,34,16.60
2016,06,27,01,35,16.60
2016,06,27,01,36,16.60
2016,06,27,01,37,16.60
2016,06,27,01,38,16.60
2016,06,27,01,39,16.60
2016,06,27,01,40,16.60
2016,06,27,01,41,16.60
2016,06,27,01,42,16.60
2016,06,27,01,43,16.60
2016,06,27,01,44,16.50
2016,06,27,01,45,16.50
2016,06,27,01,46,16.50
2016,06,27,01,47,16.50
2016,06,27,01,48,16.50
2016,06,27,01,49,16.50
2016,06,27,01,50,16.40
2016,06,27,01,51,16.40
2016,06,27,01,52,16.40
2016,06,27,01,53,16.40
2016,06,27,01,54,16.40
2016,06,27,01,55,16.40
2016,06,27,01,56,16.40
2016,06,27,01,57,16.40
2016,06,27,01,58,16.30
2016,06,27,01,59,16.30
2016,06,27,02,00,16.30
2016,06,27,02,01,16.30
2016,06,27,02,02,16.30
2016,06,27,02,03,16.30
2016,06,27,02,04,16.30
2016,06,27,02,05,16.30
2016,06,27,02,06,16.30
2016,06,27,02,07,16.20
2016,06,27,02,08,16.20
2016,06,27,02,09,16.20
2016,06,27,02,10,16.20
2016,06,27,02,11,16.20
2016,06,27,02,12,16.20
2016,06,27,02,13,16.20
2016,06,27,02,14,16.20
2016,06,27,02,15,16.20
2016,06,27,02,16,16.10
2016,06,27,02,17,16.10
2016,06,27,02,18,16.10
2016,06,27,02,19,16.10
2016,06,27,02,20,16.10
2016,06,27,02,21,16.10
2016,06,27,02,22,16.10
2016,06,27,02,23,16.10
2016,06,27,02,24,16.00
2016,06,27,02,25,16.00
2016,06,27,02,26,16.00
2016,06,27,02,27,16.00
2016,06,27,02,28,16.00
2016,06,27,02,29,15.90
2016,06,27,02,30,15.90
2016,06,27,02,31,15.90
2016,06,27,02,32,15.90
2016,06,27,02,33,15.90
2016,06,27,02,34,15.90
2016,06,27,02,35,15.90
2016,06,27,02,36,15.80
2016,06,27,02,37,15.80
2016,06,27,02,38,15.80
2016,06,27,02,39,15.80
2016,06,27,02,40,15.80
2016,06,27,02,41,15.80
2016,06,27,02,42,15.80
2016,06,27,02,43,15.80
2016,06,27,02,44,15.80
2016,06,27,02,45,15.70
2016,06,27,02,46,15.70
2016,06,27,02,47,15.70
2016,06,27,02,48,15.70
2016,06,27,02,49,15.70
2016,06,27,02,50,15.70
2016,06,27,02,51,15.70
2016,06,27,02,52,15.70
2016,06,27,02,53,15.60
2016,06,27,02,54,15.60
2016,06,27,02,55,15.60
2016,06,27,02,56,15.60
2016,06,27,02,57,15.60
2016,06,27,02,58,15.60
2016,06,27,02,59,15.60
2016,06,27,03,00,15.50
2016,06,27,03,01,15.50
2016,06,27,03,02,15.50
2016,06,27,03,03,15.50
2016,06,27,03,04,15.50
2016,06,27,03,05,15.50
2016,06,27,03,06,15.40
2016,06,27,03,07,15.40
2016,06,27,03,08,15.40
2016,06,27,03,09,15.40
2016,06,27,03,10,15.40
2016,06,27,03,11,15.40
2016,06,27,03,12,15.40
2016,06,27,03,13,15.40
2016,06,27,03,14,15.40
2016,06,27,03,15,15.40
2016,06,27,03,16,15.40
2016,06,27,03,17,15.40
2016,06,27,03,18,15.40
2016,06,27,03,19,15.40
2016,06,27,03,20,15.40
2016,06,27,03,21,15.40
2016,06,27,03,22,15.40
2016,06,27,03,23,15.40
2016,06,27,03,24,15.40
2016,06,27,03,25,15.40
2016,06,27,03,26,15.40
2016,06,27,03,27,15.40
2016,06,27,03,28,15.40
2016,06,27,03,29,15.40
2016,06,27,03,30,15.40
2016,06,27,03,31,15.40
2016,06,27,03,32,15.40
2016,06,27,03,33,15.40
2016,06,27,03,34,15.40
2016,06,27,03,35,15.40
2016,06,27,03,36,15.40
2016,06,27,03,37,15.40
2016,06,27,03,38,15.40
2016,06,27,03,39,15.40
2016,06,27,03,40,15.40
2016,06,27,03,41,15.40
2016,06,27,03,42,15.40
2016,06,27,03,43,15.40
2016,06,27,03,44,15.30
2016,06,27,03,45,15.30
2016,06,27,03,46,15.30
2016,06,27,03,47,15.30
2016,06,27,03,48,15.30
2016,06,27,03,49,15.30
2016,06,27,03,50,15.30
2016,06,27,03,51,15.30
2016,06,27,03,52,15.30
2016,06,27,03,53,15.30
2016,06,27,03,54,15.30
2016,06,27,03,55,15.30
2016,06,27,03,56,15.30
2016,06,27,03,57,15.30
2016,06,27,03,58,15.30
2016,06,27,03,59,15.30
2016,06,27,04,00,15.30
2016,06,27,04,01,15.30
2016,06,27,04,02,15.30
2016,06,27,04,03,15.30
2016,06,27,04,04,15.30
2016,06,27,04,05,15.30
2016,06,27,04,06,15.30
2016,06,27,04,07,15.30
2016,06,27,04,08,15.30
2016,06,27,04,09,15.30
2016,06,27,04,10,15.30
2016,06,27,04,11,15.20
2016,06,27,04,12,15.20
2016,06,27,04,13,15.20
2016,06,27,04,14,15.20
2016,06,27,04,15,15.20
2016,06,27,04,16,15.20
2016,06,27,04,17,15.20
2016,06,27,04,18,15.20
2016,06,27,04,19,15.20
2016,06,27,04,20,15.20
2016,06,27,04,21,15.20
2016,06,27,04,22,15.20
2016,06,27,04,23,15.10
2016,06,27,04,24,15.10
2016,06,27,04,25,15.10
2016,06,27,04,26,15.10
2016,06,27,04,27,15.10
2016,06,27,04,28,15.10
2016,06,27,04,29,15.10
2016,06,27,04,30,15.10
2016,06,27,04,31,15.10
2016,06,27,04,32,15.10
2016,06,27,04,33,15.10
2016,06,27,04,34,15.10
2016,06,27,04,35,15.10
2016,06,27,04,36,15.10
2016,06,27,04,37,15.10
2016,06,27,04,38,15.10
2016,06,27,04,39,15.10
2016,06,27,04,40,15.10
2016,06,27,04,41,15.10
2016,06,27,04,42,15.10
2016,06,27,04,43,15.00
2016,06,27,04,44,15.00
2016,06,27,04,45,15.00
2016,06,27,04,46,15.00
2016,06,27,04,47,15.00
2016,06,27,04,48,15.00
2016,06,27,04,49,15.00
2016,06,27,04,50,15.00
2016,06,27,04,51,15.00
2016,06,27,04,52,15.00
2016,06,27,04,53,15.00
2016,06,27,04,54,15.00
2016,06,27,04,55,15.00
2016,06,27,04,56,15.00
2016,06,27,04,57,15.00
2016,06,27,04,58,15.00
2016,06,27,04,59,15.00
2016,06,27,05,00,15.00
2016,06,27,05,01,15.00
2016,06,27,05,02,15.00
2016,06,27,05,03,15.00
2016,06,27,05,04,15.00
2016,06,27,05,05,15.00
2016,06,27,05,06,15.00
2016,06,27,05,07,15.00
2016,06,27,05,08,15.10
2016,06,27,05,09,15.10
2016,06,27,05,10,15.10
2016,06,27,05,11,15.10
2016,06,27,05,12,15.10
2016,06,27,05,13,15.10
2016,06,27,05,14,15.10
2016,06,27,05,15,15.10
2016,06,27,05,16,15.10
2016,06,27,05,17,15.10
2016,06,27,05,18,15.10
2016,06,27,05,19,15.00
2016,06,27,05,20,15.00
2016,06,27,05,21,15.00
2016,06,27,05,22,15.00
2016,06,27,05,23,15.00
2016,06,27,05,24,15.00
2016,06,27,05,25,15.00
2016,06,27,05,26,15.00
2016,06,27,05,27,15.00
2016,06,27,05,28,15.00
2016,06,27,05,29,15.00
2016,06,27,05,30,15.00
2016,06,27,05,31,15.00
2016,06,27,05,32,15.00
2016,06,27,05,33,15.00
2016,06,27,05,34,15.00
2016,06,27,05,35,15.00
2016,06,27,05,36,15.00
2016,06,27,05,37,15.00
2016,06,27,05,38,15.00
2016,06,27,05,39,15.00
2016,06,27,05,40,15.00
2016,06,27,05,41,15.00
2016,06,27,05,42,15.00
2016,06,27,05,43,15.00
2016,06,27,05,44,15.00
2016,06,27,05,45,15.00
2016,06,27,05,46,15.00
2016,06,27,05,47,15.00
2016,06,27,05,48,15.00
2016,06,27,05,49,15.00
2016,06,27,05,50,15.00
2016,06,27,05,51,15.00
2016,06,27,05,52,15.00
2016,06,27,05,53,15.00
2016,06,27,05,54,15.00
2016,06,27,05,55,14.90
2016,06,27,05,56,15.00
2016,06,27,05,57,14.90
2016,06,27,05,58,14.90
2016,06,27,05,59,14.90
2016,06,27,06,00,14.90
2016,06,27,06,01,14.90
2016,06,27,06,02,14.90
2016,06,27,06,03,14.90
2016,06,27,06,04,14.90
2016,06,27,06,05,14.90
2016,06,27,06,06,14.90
2016,06,27,06,07,15.00
2016,06,27,06,08,15.00
2016,06,27,06,09,15.00
2016,06,27,06,10,15.00
2016,06,27,06,11,15.00
2016,06,27,06,12,15.00
2016,06,27,06,13,15.00
2016,06,27,06,14,15.00
2016,06,27,06,15,15.00
2016,06,27,06,16,15.00
2016,06,27,06,17,15.00
2016,06,27,06,18,15.00
2016,06,27,06,19,15.00
2016,06,27,06,20,15.00
2016,06,27,06,21,15.00
2016,06,27,06,22,15.00
2016,06,27,06,23,15.10
2016,06,27,06,24,15.10
2016,06,27,06,25,15.10
2016,06,27,06,26,15.10
2016,06,27,06,27,15.10
2016,06,27,06,28,15.10
2016,06,27,06,29,15.10
2016,06,27,06,30,15.10
2016,06,27,06,31,15.10
2016,06,27,06,32,15.10
2016,06,27,06,33,15.10
2016,06,27,06,34,15.10
2016,06,27,06,35,15.10
2016,06,27,06,36,15.20
2016,06,27,06,37,15.20
2016,06,27,06,38,15.20
2016,06,27,06,39,15.20
2016,06,27,06,40,15.20
2016,06,27,06,41,15.20
2016,06,27,06,42,15.30
2016,06,27,06,43,15.30
2016,06,27,06,44,15.30
2016,06,27,06,45,15.30
2016,06,27,06,46,15.30
2016,06,27,06,47,15.30
2016,06,27,06,48,15.30
2016,06,27,06,49,15.30
2016,06,27,06,50,15.30
2016,06,27,06,51,15.40
2016,06,27,06,52,15.40
2016,06,27,06,53,15.40
2016,06,27,06,54,15.40
2016,06,27,06,55,15.50
2016,06,27,06,56,15.50
2016,06,27,06,57,15.50
2016,06,27,06,58,15.60
2016,06,27,06,59,15.60
2016,06,27,07,00,15.60
2016,06,27,07,01,15.70
2016,06,27,07,02,15.70
2016,06,27,07,03,15.80
2016,06,27,07,04,15.80
2016,06,27,07,05,15.80
2016,06,27,07,06,15.90
2016,06,27,07,07,15.90
2016,06,27,07,08,15.90
2016,06,27,07,09,16.00
2016,06,27,07,10,16.00
2016,06,27,07,11,16.00
2016,06,27,07,12,16.10
2016,06,27,07,13,16.10
2016,06,27,07,14,16.20
2016,06,27,07,15,16.20
2016,06,27,07,16,16.30
2016,06,27,07,17,16.30
2016,06,27,07,18,16.40
2016,06,27,07,19,16.50
2016,06,27,07,20,16.50
2016,06,27,07,21,16.60
2016,06,27,07,22,16.70
2016,06,27,07,23,16.80
2016,06,27,07,24,16.90
2016,06,27,07,25,17.00
2016,06,27,07,26,17.00
2016,06,27,07,27,17.10
2016,06,27,07,28,17.20
2016,06,27,07,29,17.20
2016,06,27,07,30,17.30
2016,06,27,07,31,17.40
2016,06,27,07,32,17.50
2016,06,27,07,33,17.60
2016,06,27,07,34,17.70
2016,06,27,07,35,17.70
2016,06,27,07,36,17.80
2016,06,27,07,37,17.90
2016,06,27,07,38,18.00
2016,06,27,07,39,18.10
2016,06,27,07,40,18.10
2016,06,27,07,41,18.20
2016,06,27,07,42,18.30
2016,06,27,07,43,18.40
2016,06,27,07,44,18.40
2016,06,27,07,45,18.50
2016,06,27,07,46,18.60
2016,06,27,07,47,18.70
2016,06,27,07,48,18.70
2016,06,27,07,49,18.80
2016,06,27,07,50,18.80
2016,06,27,07,51,18.90
2016,06,27,07,52,19.00
2016,06,27,07,53,19.10
2016,06,27,07,54,19.10
2016,06,27,07,55,19.20
2016,06,27,07,56,19.20
2016,06,27,07,57,19.30
2016,06,27,07,58,19.30
2016,06,27,07,59,19.40
2016,06,27,08,00,19.50
2016,06,27,08,01,19.50
2016,06,27,08,02,19.60
2016,06,27,08,03,19.60
2016,06,27,08,04,19.60
2016,06,27,08,05,19.70
2016,06,27,08,06,19.70
2016,06,27,08,07,19.80
2016,06,27,08,08,19.80
2016,06,27,08,09,19.90
2016,06,27,08,10,20.00
2016,06,27,08,11,20.10
2016,06,27,08,12,20.20
2016,06,27,08,13,20.30
2016,06,27,08,14,20.30
2016,06,27,08,15,20.40
2016,06,27,08,16,20.50
2016,06,27,08,17,20.50
2016,06,27,08,18,20.60
2016,06,27,08,19,20.60
2016,06,27,08,20,20.60
2016,06,27,08,21,20.70
2016,06,27,08,22,20.70
2016,06,27,08,23,20.80
2016,06,27,08,24,20.80
2016,06,27,08,25,20.80
2016,06,27,08,26,20.90
2016,06,27,08,27,20.90
2016,06,27,08,28,20.90
2016,06,27,08,29,21.00
2016,06,27,08,30,21.00
2016,06,27,08,31,21.10
2016,06,27,08,32,21.10
2016,06,27,08,33,21.10
2016,06,27,08,34,21.10
2016,06,27,08,35,21.20
2016,06,27,08,36,21.20
2016,06,27,08,37,21.20
2016,06,27,08,38,21.30
2016,06,27,08,39,21.30
2016,06,27,08,40,21.30
2016,06,27,08,41,21.30
2016,06,27,08,42,21.30
2016,06,27,08,43,21.30
2016,06,27,08,44,21.30
2016,06,27,08,45,21.30
2016,06,27,08,46,21.30
2016,06,27,08,47,21.30
2016,06,27,08,48,21.40
2016,06,27,08,49,21.40
2016,06,27,08,50,21.40
2016,06,27,08,51,21.40
2016,06,27,08,52,21.40
2016,06,27,08,53,21.40
2016,06,27,08,54,21.40
2016,06,27,08,55,21.50
2016,06,27,08,56,21.50
2016,06,27,08,57,21.60
2016,06,27,08,58,21.60
2016,06,27,08,59,21.70
2016,06,27,09,00,21.70
2016,06,27,09,01,21.80
2016,06,27,09,02,21.80
2016,06,27,09,03,21.80
2016,06,27,09,04,21.90
2016,06,27,09,05,21.90
2016,06,27,09,06,21.90
2016,06,27,09,07,22.00
2016,06,27,09,08,22.00
2016,06,27,09,09,22.10
2016,06,27,09,10,22.10
2016,06,27,09,11,22.20
2016,06,27,09,12,22.20
2016,06,27,09,13,22.30
2016,06,27,09,14,22.40
2016,06,27,09,15,22.50
2016,06,27,09,16,22.50
2016,06,27,09,17,22.60
2016,06,27,09,18,22.60
2016,06,27,09,19,22.70
2016,06,27,09,20,22.80
2016,06,27,09,21,22.90
2016,06,27,09,22,22.90
2016,06,27,09,23,23.00
2016,06,27,09,24,23.00
2016,06,27,09,25,23.10
2016,06,27,09,26,23.20
2016,06,27,09,27,23.20
2016,06,27,09,28,23.30
2016,06,27,09,29,23.30
2016,06,27,09,30,23.30
2016,06,27,09,31,23.40
2016,06,27,09,32,23.40
2016,06,27,09,33,23.40
2016,06,27,09,34,23.40
2016,06,27,09,35,23.40
2016,06,27,09,36,23.50
2016,06,27,09,37,23.50
2016,06,27,09,38,23.60
2016,06,27,09,39,23.70
2016,06,27,09,40,23.80
2016,06,27,09,41,23.80
2016,06,27,09,42,23.90
2016,06,27,09,43,24.00
2016,06,27,09,44,23.90
2016,06,27,09,45,23.90
2016,06,27,09,46,23.90
2016,06,27,09,47,23.90
2016,06,27,09,48,23.80
2016,06,27,09,49,23.80
2016,06,27,09,50,23.90
2016,06,27,09,51,23.90
2016,06,27,09,52,23.90
2016,06,27,09,53,23.90
2016,06,27,09,54,23.90
2016,06,27,09,55,24.00
2016,06,27,09,56,24.10
2016,06,27,09,57,24.10
2016,06,27,09,58,24.10
2016,06,27,09,59,24.20
2016,06,27,10,00,24.20
2016,06,27,10,01,24.20
2016,06,27,10,02,24.30
2016,06,27,10,03,24.30
2016,06,27,10,04,24.40
2016,06,27,10,05,24.40
2016,06,27,10,06,24.40
2016,06,27,10,07,24.40
2016,06,27,10,08,24.40
2016,06,27,10,09,24.50
2016,06,27,10,10,24.50
2016,06,27,10,11,24.60
2016,06,27,10,12,24.70
2016,06,27,10,13,24.80
2016,06,27,10,14,24.80
2016,06,27,10,15,24.90
2016,06,27,10,16,25.00
2016,06,27,10,17,25.00
2016,06,27,10,18,25.00
2016,06,27,10,19,25.00
2016,06,27,10,20,25.00
2016,06,27,10,21,25.00
2016,06,27,10,22,25.00
2016,06,27,10,23,25.10
2016,06,27,10,24,25.10
2016,06,27,10,25,25.10
2016,06,27,10,26,25.20
2016,06,27,10,27,25.20
2016,06,27,10,28,25.20
2016,06,27,10,29,25.30
2016,06,27,10,30,25.40
2016,06,27,10,31,25.40
2016,06,27,10,32,25.40
2016,06,27,10,33,25.30
2016,06,27,10,34,25.30
2016,06,27,10,35,25.30
2016,06,27,10,36,25.30
2016,06,27,10,37,25.30
2016,06,27,10,38,25.40
2016,06,27,10,39,25.40
2016,06,27,10,40,25.30
2016,06,27,10,41,25.30
2016,06,27,10,42,25.30
2016,06,27,10,43,25.30
2016,06,27,10,44,25.20
2016,06,27,10,45,25.20
2016,06,27,10,46,25.10
2016,06,27,10,47,25.10
2016,06,27,10,48,25.10
2016,06,27,10,49,25.10
2016,06,27,10,50,25.10
2016,06,27,10,51,25.10
2016,06,27,10,52,25.10
2016,06,27,10,53,25.10
2016,06,27,10,54,25.10
2016,06,27,10,55,25.00
2016,06,27,10,56,24.90
2016,06,27,10,57,25.00
2016,06,27,10,58,25.00
2016,06,27,10,59,25.00
2016,06,27,11,00,25.00
2016,06,27,11,01,25.10
2016,06,27,11,02,25.10
2016,06,27,11,03,25.20
2016,06,27,11,04,25.20
2016,06,27,11,05,25.20
2016,06,27,11,06,25.30
2016,06,27,11,07,25.30
2016,06,27,11,08,25.30
2016,06,27,11,09,25.20
2016,06,27,11,10,25.10
2016,06,27,11,11,25.10
2016,06,27,11,12,25.10
2016,06,27,11,13,25.10
2016,06,27,11,14,25.00
2016,06,27,11,15,25.00
2016,06,27,11,16,25.00
2016,06,27,11,17,25.00
2016,06,27,11,18,25.10
2016,06,27,11,19,25.20
2016,06,27,11,20,25.20
2016,06,27,11,21,25.20
2016,06,27,11,22,25.20
2016,06,27,11,23,25.20
2016,06,27,11,24,25.30
2016,06,27,11,25,25.30
2016,06,27,11,26,25.30
2016,06,27,11,27,25.40
2016,06,27,11,28,25.40
2016,06,27,11,29,25.40
2016,06,27,11,30,25.50
2016,06,27,11,31,25.60
2016,06,27,11,32,25.60
2016,06,27,11,33,25.70
2016,06,27,11,34,25.70
2016,06,27,11,35,25.70
2016,06,27,11,36,25.70
2016,06,27,11,37,25.70
2016,06,27,11,38,25.70
2016,06,27,11,39,25.70
2016,06,27,11,40,25.70
2016,06,27,11,41,25.70
2016,06,27,11,42,25.70
2016,06,27,11,43,25.80
2016,06,27,11,44,25.80
2016,06,27,11,45,25.90
2016,06,27,11,46,26.00
2016,06,27,11,47,26.10
2016,06,27,11,48,26.10
2016,06,27,11,49,26.10
2016,06,27,11,50,26.20
2016,06,27,11,51,26.20
2016,06,27,11,52,26.10
2016,06,27,11,53,26.10
2016,06,27,11,54,26.00
2016,06,27,11,55,26.00
2016,06,27,11,56,25.90
2016,06,27,11,57,25.90
2016,06,27,11,58,25.90
2016,06,27,11,59,25.90
2016,06,27,12,00,25.90
2016,06,27,12,01,25.90
2016,06,27,12,02,26.00
2016,06,27,12,03,26.00
2016,06,27,12,04,26.10
2016,06,27,12,05,26.10
2016,06,27,12,06,26.20
2016,06,27,12,07,26.20
2016,06,27,12,08,26.30
2016,06,27,12,09,26.30
2016,06,27,12,10,26.30
2016,06,27,12,11,26.40
2016,06,27,12,12,26.30
2016,06,27,12,13,26.30
2016,06,27,12,14,26.30
2016,06,27,12,15,26.30
2016,06,27,12,16,26.30
2016,06,27,12,17,26.30
2016,06,27,12,18,26.40
2016,06,27,12,19,26.40
2016,06,27,12,20,26.40
2016,06,27,12,21,26.40
2016,06,27,12,22,26.50
2016,06,27,12,23,26.50
2016,06,27,12,24,26.60
2016,06,27,12,25,26.60
2016,06,27,12,26,26.70
2016,06,27,12,27,26.70
2016,06,27,12,28,26.60
2016,06,27,12,29,26.60
2016,06,27,12,30,26.70
2016,06,27,12,31,26.70
2016,06,27,12,32,26.70
2016,06,27,12,33,26.80
2016,06,27,12,34,26.80
2016,06,27,12,35,26.90
2016,06,27,12,36,27.00
2016,06,27,12,37,27.10
2016,06,27,12,38,27.10
2016,06,27,12,39,27.20
2016,06,27,12,40,27.20
2016,06,27,12,41,27.30
2016,06,27,12,42,27.30
2016,06,27,12,43,27.30
2016,06,27,12,44,27.40
2016,06,27,12,45,27.40
2016,06,27,12,46,27.40
2016,06,27,12,47,27.40
2016,06,27,12,48,27.40
2016,06,27,12,49,27.50
2016,06,27,12,50,27.50
2016,06,27,12,51,27.60
2016,06,27,12,52,27.70
2016,06,27,12,53,27.80
2016,06,27,12,54,27.90
2016,06,27,12,55,27.90
2016,06,27,12,56,27.80
2016,06,27,12,57,27.70
2016,06,27,12,58,27.60
2016,06,27,12,59,27.50
2016,06,27,13,00,27.50
2016,06,27,13,01,27.40
2016,06,27,13,02,27.40
2016,06,27,13,03,27.40
2016,06,27,13,04,27.40
2016,06,27,13,05,27.40
2016,06,27,13,06,27.40
2016,06,27,13,07,27.40
2016,06,27,13,08,27.50
2016,06,27,13,09,27.50
2016,06,27,13,10,27.50
2016,06,27,13,11,27.50
2016,06,27,13,12,27.40
2016,06,27,13,13,27.40
2016,06,27,13,14,27.40
2016,06,27,13,15,27.50
2016,06,27,13,16,27.50
2016,06,27,13,17,27.60
2016,06,27,13,18,27.70
2016,06,27,13,19,27.80
2016,06,27,13,20,27.80
2016,06,27,13,21,27.80
2016,06,27,13,22,27.80
2016,06,27,13,23,27.80
2016,06,27,13,24,27.80
2016,06,27,13,25,27.80
2016,06,27,13,26,27.80
2016,06,27,13,27,27.80
2016,06,27,13,28,27.80
2016,06,27,13,29,27.90
2016,06,27,13,30,27.90
2016,06,27,13,31,27.90
2016,06,27,13,32,27.90
2016,06,27,13,33,27.90
2016,06,27,13,34,27.90
2016,06,27,13,35,27.90
2016,06,27,13,36,27.90
2016,06,27,13,37,27.80
2016,06,27,13,38,27.80
2016,06,27,13,39,27.80
2016,06,27,13,40,27.80
2016,06,27,13,41,27.90
2016,06,27,13,42,27.90
2016,06,27,13,43,28.00
2016,06,27,13,44,28.00
2016,06,27,13,45,28.00
2016,06,27,13,46,28.10
2016,06,27,13,47,28.20
2016,06,27,13,48,28.30
2016,06,27,13,49,28.30
2016,06,27,13,50,28.40
2016,06,27,13,51,28.40
2016,06,27,13,52,28.40
2016,06,27,13,53,28.40
2016,06,27,13,54,28.40
2016,06,27,13,55,28.40
2016,06,27,13,56,28.50
2016,06,27,13,57,28.50
2016,06,27,13,58,28.40
2016,06,27,13,59,28.40
2016,06,27,14,00,28.30
2016,06,27,14,01,28.30
2016,06,27,14,02,28.30
2016,06,27,14,03,28.30
2016,06,27,14,04,28.20
2016,06,27,14,05,28.10
2016,06,27,14,06,28.00
2016,06,27,14,07,27.80
2016,06,27,14,08,27.80
2016,06,27,14,09,27.70
2016,06,27,14,10,27.70
2016,06,27,14,11,27.70
2016,06,27,14,12,27.70
2016,06,27,14,13,27.70
2016,06,27,14,14,27.70
2016,06,27,14,15,27.70
2016,06,27,14,16,27.80
2016,06,27,14,17,27.80
2016,06,27,14,18,27.80
2016,06,27,14,19,27.90
2016,06,27,14,20,27.90
2016,06,27,14,21,27.90
2016,06,27,14,22,27.80
2016,06,27,14,23,27.80
2016,06,27,14,24,27.80
2016,06,27,14,25,27.70
2016,06,27,14,26,27.60
2016,06,27,14,27,27.60
2016,06,27,14,28,27.50
2016,06,27,14,29,27.40
2016,06,27,14,30,27.30
2016,06,27,14,31,27.30
2016,06,27,14,32,27.20
2016,06,27,14,33,27.10
2016,06,27,14,34,27.10
2016,06,27,14,35,27.00
2016,06,27,14,36,27.00
2016,06,27,14,37,27.10
2016,06,27,14,38,27.10
2016,06,27,14,39,27.10
2016,06,27,14,40,27.20
2016,06,27,14,41,27.20
2016,06,27,14,42,27.20
2016,06,27,14,43,27.20
2016,06,27,14,44,27.20
2016,06,27,14,45,27.20
2016,06,27,14,46,27.20
2016,06,27,14,47,27.20
2016,06,27,14,48,27.20
2016,06,27,14,49,27.30
2016,06,27,14,50,27.30
2016,06,27,14,51,27.40
2016,06,27,14,52,27.40
2016,06,27,14,53,27.40
2016,06,27,14,54,27.40
2016,06,27,14,55,27.40
2016,06,27,14,56,27.40
2016,06,27,14,57,27.30
2016,06,27,14,58,27.40
2016,06,27,14,59,27.40
2016,06,27,15,00,27.50
2016,06,27,15,01,27.50
2016,06,27,15,02,27.50
2016,06,27,15,03,27.50
2016,06,27,15,04,27.40
2016,06,27,15,05,27.40
2016,06,27,15,06,27.40
2016,06,27,15,07,27.40
2016,06,27,15,08,27.40
2016,06,27,15,09,27.50
2016,06,27,15,10,27.50
2016,06,27,15,11,27.60
2016,06,27,15,12,27.70
2016,06,27,15,13,27.70
2016,06,27,15,14,27.80
2016,06,27,15,15,27.80
2016,06,27,15,16,27.90
2016,06,27,15,17,27.90
2016,06,27,15,18,27.90
2016,06,27,15,19,27.90
2016,06,27,15,20,28.00
2016,06,27,15,21,28.10
2016,06,27,15,22,28.20
2016,06,27,15,23,28.20
2016,06,27,15,24,28.30
2016,06,27,15,25,28.30
2016,06,27,15,26,28.30
2016,06,27,15,27,28.40
2016,06,27,15,28,28.40
2016,06,27,15,29,28.40
2016,06,27,15,30,28.50
2016,06,27,15,31,28.50
2016,06,27,15,32,28.50
2016,06,27,15,33,28.40
2016,06,27,15,34,28.40
2016,06,27,15,35,28.40
2016,06,27,15,36,28.40
2016,06,27,15,37,28.30
2016,06,27,15,38,28.30
2016,06,27,15,39,28.30
2016,06,27,15,40,28.30
2016,06,27,15,41,28.30
2016,06,27,15,42,28.30
2016,06,27,15,43,28.30
2016,06,27,15,44,28.30
2016,06,27,15,45,28.30
2016,06,27,15,46,28.30
2016,06,27,15,47,28.30
2016,06,27,15,48,28.30
2016,06,27,15,49,28.30
2016,06,27,15,50,28.40
2016,06,27,15,51,28.40
2016,06,27,15,52,28.40
2016,06,27,15,53,28.40
2016,06,27,15,54,28.50
2016,06,27,15,55,28.50
2016,06,27,15,56,28.40
2016,06,27,15,57,28.40
2016,06,27,15,58,28.40
2016,06,27,15,59,28.30
2016,06,27,16,00,28.30
2016,06,27,16,01,28.20
2016,06,27,16,02,28.20
2016,06,27,16,03,28.20
2016,06,27,16,04,28.20
2016,06,27,16,05,28.20
2016,06,27,16,06,28.20
2016,06,27,16,07,28.20
2016,06,27,16,08,28.20
2016,06,27,16,09,28.20
2016,06,27,16,10,28.30
2016,06,27,16,11,28.30
2016,06,27,16,12,28.30
2016,06,27,16,13,28.40
2016,06,27,16,14,28.40
2016,06,27,16,15,28.40
2016,06,27,16,16,28.30
2016,06,27,16,17,28.30
2016,06,27,16,18,28.30
2016,06,27,16,19,28.30
2016,06,27,16,20,28.30
2016,06,27,16,21,28.40
2016,06,27,16,22,28.40
2016,06,27,16,23,28.50
2016,06,27,16,24,28.60
2016,06,27,16,25,28.60
2016,06,27,16,26,28.50
2016,06,27,16,27,28.40
2016,06,27,16,28,28.40
2016,06,27,16,29,28.40
2016,06,27,16,30,28.50
2016,06,27,16,31,28.50
2016,06,27,16,32,28.60
2016,06,27,16,33,28.70
2016,06,27,16,34,28.70
2016,06,27,16,35,28.70
2016,06,27,16,36,28.60
2016,06,27,16,37,28.60
2016,06,27,16,38,28.60
2016,06,27,16,39,28.50
2016,06,27,16,40,28.50
2016,06,27,16,41,28.40
2016,06,27,16,42,28.40
2016,06,27,16,43,28.40
2016,06,27,16,44,28.40
2016,06,27,16,45,28.40
2016,06,27,16,46,28.40
2016,06,27,16,47,28.40
2016,06,27,16,48,28.40
2016,06,27,16,49,28.40
2016,06,27,16,50,28.40
2016,06,27,16,51,28.30
2016,06,27,16,52,28.40
2016,06,27,16,53,28.30
2016,06,27,16,54,28.30
2016,06,27,16,55,28.30
2016,06,27,16,56,28.30
2016,06,27,16,57,28.30
2016,06,27,16,58,28.30
2016,06,27,16,59,28.30
2016,06,27,17,00,28.30
2016,06,27,17,01,28.30
2016,06,27,17,02,28.30
2016,06,27,17,03,28.30
2016,06,27,17,04,28.30
2016,06,27,17,05,28.30
2016,06,27,17,06,28.30
2016,06,27,17,07,28.30
2016,06,27,17,08,28.30
2016,06,27,17,09,28.30
2016,06,27,17,10,28.30
2016,06,27,17,11,28.30
2016,06,27,17,12,28.20
2016,06,27,17,13,28.20
2016,06,27,17,14,28.20
2016,06,27,17,15,28.20
2016,06,27,17,16,28.20
2016,06,27,17,17,28.20
2016,06,27,17,18,28.20
2016,06,27,17,19,28.30